Location: Domont
(49.0278°N, 2.3264°E)
Time: 12:39:16
(UTC+00:00)

DX 1 - Pass Details

Date: 04 July 2022
Orbit: 617 x 629 km, 98.4° (Epoch: 11 August)

Event Time Altitude Azimuth Distance (km) Brightness Sun altitude
Rises 21:53:36 0° 8° (N) 2,933 ? -13.2°
Reaches altitude 10° 21:55:55 10° 0° (N) 2,019 ? -13.4°
Maximum altitude 21:59:58 38° 293° (WNW) 968 ? -13.7°
Drops below altitude 10° 22:03:59 10° 226° (SW) 1,999 ? -14.0°
Sets 22:06:16 0° 218° (SW) 2,899 ? -14.2°
